FLTSATCOM F5

operational
NORAD ID: 12635 Int'l Des: 1981-073 Owner: USNESC/AFSD Country: US
HEOCIRCULAR

About FLTSATCOM F5

Description loading...

Live Position

Loading 3D Globe...

Upcoming Passes

Altitude History

Altitude vs Time

uPlot chart will show altitude changes over time

Two-Line Element Set

1 12635U 81073A 26018.81220096 .00000034 00000-0 00000-0 0 9998
2 12635 14.1873 309.2788 0005157 187.5147 353.6500 0.98603185131592
Epoch: Jan 18, 2026 • Age: 16 hours

Current Status

Altitude 36274.8 km
Velocity 3.06 km/s
Sub-Earth Point 11.56°N, 74.98°E
Launch Date Aug 6, 1981
Age 44.4 years
Type other

Technical Details

Classification Payload
Mass 942.00 kg
Dry Mass 822.00 kg
Total Mass 1876.00 kg
Length 1.30 m
Diameter 2.40 m
Span 13.20 m
Shape Hex Cyl + Dish + 2 Pan
Manufacturer TRW
Bus Type FLTSATCOM
Phase Status In Orbit
Owner/State USNESC/AFSD/US

Large Constellations

Loading constellations...